Location: Hollin Hills
(38.7573°N, 77.0661°W)
Time: 18:29:41
(UTC+00:00)

BlueWalker 3 - Pass Details

Date: 11 April 2026
Orbit: 447 x 458 km, 53.2° (Epoch: 12 May)

Event Time Altitude Azimuth Distance (km) Brightness Sun altitude
Rises 01:38:49 0° 297° (WNW) 2,474 7.0 -22.2°
Reaches altitude 10° 01:41:20 10° 281° (W) 1,597 5.4 -22.6°
Maximum altitude 01:44:02 20° 232° (SW) 1,110 3.8 -23.1°
Enters shadow 01:44:17 20° 225° (SW) 1,115 3.8 -23.1°
